This demonstration page uses our WeatherBlox Daily Observations layout. Learn more.

Left ArrowRight Arrow

38.20091, -84.87328

Hourly Observations for July 24, 2022

Temp ( °F °C ) Dew Point ( °F °C ) Humidity (%) Winds ( mph kmh ) Pressure ( in mb ) Visibility ( mi km ) Precip ( " mm )
12:53 am 00:53 Clear 82 27.8 74 23.3 77 77 S 8 13 30.03 1017 10 16 0.00 0.00
1:53 am 01:53 Clear 80 26.7 71 21.7 74 74 S 8 13 30.02 1017 10 16 0.00 0.00
2:53 am 02:53 Clear 77 25 68 20 74 74 SSW 7 11 29.99 1016 10 16 0.00 0.00
3:53 am 03:53 Clear 75 23.9 66 18.9 74 74 SW 5 7 30.00 1016 10 16 0.00 0.00
4:53 am 04:53 Clear 75 23.9 66 18.9 74 74 S 6 9 30.03 1017 10 16 0.00 0.00
5:53 am 05:53 Clear 74 23.3 66 18.9 76 76 SW 6 9 30.02 1017 10 16 0.00 0.00
6:53 am 06:53 Sunny 75 23.9 67 19.4 76 76 SSW 6 9 30.02 1017 10 16 0.00 0.00
7:53 am 07:53 Sunny 76 24.4 69 20.6 79 79 SSW 8 13 30.02 1017 10 16 0.00 0.00
8:53 am 08:53 Sunny 78 25.6 70 21.1 76 76 SW 9 15 30.04 1017 10 16 0.00 0.00
9:53 am 09:53 Sunny 82 27.8 72 22.2 72 72 SSW 9 15 30.04 1017 10 16 0.00 0.00
10:53 am 10:53 Sunny 85 29.4 73 22.8 68 68 SSW 10 17 30.02 1017 10 16 0.00 0.00
11:53 am 11:53 Sunny 87 30.6 74 23.3 65 65 S 10 17 30.03 1017 10 16 0.00 0.00
12:53 pm 12:53 Partly Cloudy 90 32.2 74 23.3 59 59 SSW 16 26 30.02 1017 10 16 0.00 0.00
1:53 pm 13:53 Mostly Sunny 89 31.7 73 22.8 59 59 SSW 16 26 30.00 1016 10 16 0.00 0.00
2:53 pm 14:53 Partly Cloudy 91 32.8 74 23.3 57 57 SSW 16 26 29.99 1016 10 16 0.00 0.00
3:53 pm 15:53 Mostly Cloudy 90 32.2 73 22.8 58 58 SSW 14 22 29.98 1015 10 16 0.00 0.00
4:53 pm 16:53 Sunny 91 32.8 73 22.8 56 56 SSW 15 24 29.97 1015 10 16 0.00 0.00
5:53 pm 17:53 Sunny 90 32.2 73 22.8 58 58 SW 12 19 29.97 1015 10 16 0.00 0.00
6:53 pm 18:53 Sunny 88 31.1 72 22.2 59 59 S 15 24 29.93 1014 10 16 0.00 0.00
7:53 pm 19:53 Sunny 86 30 72 22.2 63 63 S 9 15 29.93 1014 10 16 0.00 0.00
8:53 pm 20:53 Sunny 83 28.3 72 22.2 70 70 SW 7 11 29.97 1015 10 16 0.00 0.00
9:53 pm 21:53 Clear 82 27.8 72 22.2 72 72 SSW 8 13 29.96 1015 10 16 0.00 0.00
10:53 pm 22:53 Clear 83 28.3 73 22.8 72 72 SSW 9 15 29.97 1015 10 16 0.00 0.00
11:53 pm 23:53 Mostly Clear with Light Rain 81 27.2 74 23.3 79 79 SW 8 13 29.97 1015 10 16 0.00 0.00

Powered by AerisWeather